| time (UTC) | temp C | wind direction | speed KPH | gust KPH | rain 1hr cm | rain 24hr cm | rain mn cm | humidity % | barometer mb |
| 20260905204856 | 28 | 265 | 0.0 | 0.0 | 0.00 | 1.04 | 1.04 | 67 | 1012.8 |
| 20260905204352 | 28 | 265 | 0.0 | 0.0 | 0.00 | 1.04 | 1.04 | 66 | 1012.8 |
| 20260905203845 | 28 | 347 | 0.0 | 0.0 | 0.00 | 1.04 | 1.04 | 71 | 1012.9 |
| 20260905203341 | 28 | 4 | 0.0 | 0.0 | 0.00 | 1.04 | 1.04 | 68 | 1013.0 |
| 20260905202837 | 27 | 23 | 0.0 | 0.0 | 0.00 | 1.04 | 1.04 | 71 | 1013.1 |
| 20260905202331 | 28 | 358 | 0.0 | 0.0 | 0.00 | 1.04 | 1.04 | 72 | 1012.9 |
| 20260905201827 | 28 | 307 | 0.0 | 0.0 | 0.00 | 1.04 | 1.04 | 71 | 1013.0 |
| 20260905201322 | 28 | 300 | 0.0 | 0.0 | 0.00 | 1.04 | 1.04 | 66 | 1012.9 |
| 20260905200822 | 28 | 34 | 0.0 | 0.0 | 0.00 | 1.04 | 1.04 | 69 | 1012.9 |
| 20260905200318 | 27 | 69 | 0.0 | 0.0 | 0.00 | 1.04 | 1.04 | 72 | 1013.0 |
| 20260905195815 | 27 | 9 | 0.0 | 0.0 | 0.00 | 1.04 | 1.04 | 70 | 1013.2 |
| 20260905195311 | 27 | 34 | 0.0 | 0.0 | 0.00 | 1.04 | 1.04 | 76 | 1013.3 |
| 20260905194807 | 27 | 39 | 0.0 | 0.0 | 0.00 | 1.04 | 1.04 | 73 | 1013.1 |
| 20260905194307 | 28 | 20 | 0.0 | 0.0 | 0.00 | 1.04 | 1.04 | 71 | 1013.3 |
| 20260905193806 | 28 | 244 | 0.0 | 0.0 | 0.00 | 1.04 | 1.04 | 67 | 1013.5 |
| 20260905193302 | 28 | 297 | 0.0 | 0.0 | 0.00 | 1.04 | 1.04 | 71 | 1013.6 |
| 20260905192757 | 28 | 241 | 0.0 | 0.0 | 0.00 | 1.04 | 1.04 | 68 | 1013.9 |
| 20260905192253 | 28 | 246 | 0.0 | 0.0 | 0.00 | 1.04 | 1.04 | 67 | 1013.7 |
| 20260905191752 | 28 | 291 | 0.0 | 0.0 | 0.00 | 1.04 | 1.04 | 73 | 1013.8 |
| 20260905191250 | 28 | 295 | 0.0 | 0.0 | 0.00 | 1.04 | 1.04 | 70 | 1013.7 |
| 20260905190749 | 27 | 299 | 0.0 | 0.0 | 0.00 | 1.04 | 1.04 | 69 | 1013.7 |
| 20260905190248 | 28 | 260 | 0.0 | 0.0 | 0.00 | 1.04 | 1.04 | 70 | 1013.9 |
| 20260905185747 | 28 | 260 | 0.0 | 0.0 | 0.00 | 1.04 | 1.04 | 69 | 1013.8 |
| 20260905185243 | 28 | 241 | 0.0 | 0.0 | 0.00 | 1.04 | 1.04 | 72 | 1014.1 |
| 20260905184736 | 27 | 303 | 0.0 | 0.0 | 0.00 | 1.04 | 1.04 | 73 | 1014.1 |
| 20260905184236 | 27 | 296 | 0.0 | 0.0 | 0.00 | 1.04 | 1.04 | 77 | 1014.2 |
| 20260905183735 | 28 | 249 | 0.0 | 0.0 | 0.00 | 1.04 | 1.04 | 70 | 1014.1 |
| 20260905183231 | 28 | 262 | 0.0 | 0.0 | 0.00 | 1.04 | 1.04 | 67 | 1014.3 |
| 20260905182724 | 27 | 221 | 0.0 | 0.0 | 0.00 | 1.04 | 1.04 | 69 | 1014.2 |
| 20260905182224 | 27 | 284 | 0.0 | 0.0 | 0.00 | 1.04 | 1.04 | 77 | 1014.1 |
| 20260905181719 | 26 | 274 | 0.0 | 0.0 | 0.00 | 1.04 | 1.04 | 75 | 1014.2 |
| 20260905181218 | 26 | 344 | 0.0 | 0.0 | 0.00 | 1.04 | 1.04 | 76 | 1014.1 |
| 20260905180713 | 27 | 56 | 0.0 | 0.0 | 0.00 | 1.04 | 1.04 | 73 | 1014.2 |
| 20260905180209 | 27 | 163 | 0.0 | 0.0 | 0.00 | 1.04 | 1.04 | 74 | 1014.1 |
| 20260905175708 | 27 | 143 | 0.0 | 0.0 | 0.00 | 1.04 | 1.04 | 72 | 1014.2 |
| 20260905175203 | 27 | 121 | 0.0 | 0.0 | 0.00 | 1.04 | 1.04 | 74 | 1014.3 |
| 20260905174658 | 27 | 74 | 0.0 | 0.0 | 0.00 | 1.04 | 1.04 | 78 | 1014.4 |
| 20260905174154 | 27 | 307 | 0.0 | 0.0 | 0.00 | 1.04 | 1.04 | 73 | 1014.4 |
| 20260905173651 | 27 | 251 | 0.0 | 0.0 | 0.00 | 1.04 | 1.04 | 72 | 1014.4 |
| 20260905173146 | 27 | 261 | 0.0 | 0.0 | 0.00 | 1.04 | 1.04 | 72 | 1014.6 |
| 20260905172645 | 27 | 352 | 0.0 | 0.0 | 0.00 | 1.04 | 1.04 | 71 | 1014.7 |
| 20260905172145 | 26 | 298 | 0.0 | 0.0 | 0.00 | 1.04 | 1.04 | 75 | 1014.7 |
| 20260905171641 | 26 | 247 | 0.0 | 0.0 | 0.00 | 1.04 | 1.04 | 76 | 1014.8 |
| 20260905171137 | 26 | 36 | 0.0 | 0.0 | 0.00 | 1.04 | 1.04 | 75 | 1015.1 |
| 20260905170633 | 26 | 165 | 0.0 | 0.0 | 0.00 | 1.04 | 1.04 | 78 | 1015.2 |
| 20260905170128 | 26 | 249 | 0.0 | 0.0 | 0.00 | 1.04 | 1.04 | 75 | 1015.4 |
| 20260905165623 | 26 | 252 | 0.0 | 0.0 | 0.00 | 1.04 | 1.04 | 74 | 1015.3 |
| 20260905165118 | 26 | 245 | 0.0 | 0.0 | 0.00 | 1.04 | 1.04 | 75 | 1015.5 |
| 20260905164613 | 26 | 248 | 0.0 | 0.0 | 0.00 | 1.04 | 1.04 | 77 | 1015.5 |
| 20260905164112 | 26 | 243 | 0.0 | 0.0 | 0.00 | 1.04 | 1.04 | 73 | 1015.3 |
| 20260905163609 | 25 | 266 | 0.0 | 0.0 | 0.00 | 1.04 | 1.04 | 74 | 1015.4 |
| 20260905163105 | 25 | 22 | 0.0 | 0.0 | 0.00 | 1.04 | 1.04 | 77 | 1015.4 |
| 20260905162601 | 25 | 355 | 0.0 | 0.0 | 0.00 | 1.04 | 1.04 | 77 | 1015.7 |
| 20260905162055 | 25 | 41 | 0.0 | 0.0 | 0.00 | 1.04 | 1.04 | 79 | 1015.5 |
| 20260905161555 | 25 | 105 | 0.0 | 0.0 | 0.00 | 1.04 | 1.04 | 85 | 1015.6 |
| 20260905161052 | 24 | 230 | 0.0 | 0.0 | 0.00 | 1.04 | 1.04 | 82 | 1015.8 |
| 20260905160551 | 24 | 248 | 0.0 | 0.0 | 0.00 | 1.04 | 1.04 | 81 | 1015.9 |
| 20260905160051 | 24 | 24 | 0.0 | 0.0 | 0.00 | 1.04 | 1.04 | 82 | 1015.9 |
| 20260905155545 | 24 | 53 | 0.0 | 0.0 | 0.00 | 1.04 | 1.04 | 85 | 1015.7 |
| 20260905155044 | 23 | 68 | 0.0 | 0.0 | 0.00 | 1.04 | 1.04 | 88 | 1015.9 |
| 20260905154539 | 23 | 89 | 0.0 | 0.0 | 0.00 | 1.04 | 1.04 | 89 | 1015.7 |
| 20260905154034 | 23 | 256 | 0.0 | 0.0 | 0.00 | 1.04 | 1.04 | 90 | 1015.7 |
| 20260905153530 | 22 | 281 | 0.0 | 0.0 | 0.00 | 1.04 | 1.04 | 93 | 1015.6 |
| 20260905153030 | 22 | 330 | 0.0 | 0.0 | 0.00 | 1.04 | 1.04 | 93 | 1015.7 |
| 20260905152525 | 22 | 320 | 0.0 | 0.0 | 0.00 | 1.04 | 1.04 | 95 | 1015.9 |
| 20260905152020 | 22 | 355 | 0.0 | 0.0 | 0.00 | 1.04 | 1.04 | 96 | 1016.2 |
| 20260905151515 | 22 | 355 | 0.0 | 0.0 | 0.00 | 1.04 | 1.04 | 97 | 1016.1 |
| 20260905151010 | 22 | 250 | 0.0 | 0.0 | 0.00 | 1.04 | 1.04 | 96 | 1016.3 |
| 20260905150505 | 22 | 9 | 0.0 | 0.0 | 0.00 | 1.04 | 1.04 | 97 | 1016.4 |
| 20260905150002 | 22 | 359 | 0.0 | 0.0 | 0.00 | 1.04 | 1.04 | 98 | 1016.4 |
| 20260905145457 | 22 | 4 | 0.0 | 0.0 | 0.00 | 1.04 | 1.04 | 98 | 1016.4 |
| 20260905144956 | 22 | 10 | 0.0 | 0.0 | 0.00 | 1.04 | 1.04 | 98 | 1016.3 |
| 20260905144452 | 22 | 7 | 0.0 | 0.0 | 0.00 | 1.04 | 1.04 | 98 | 1016.1 |
| 20260905143950 | 22 | 303 | 0.0 | 0.0 | 0.00 | 1.04 | 1.04 | 98 | 1015.5 |
| 20260905143449 | 22 | 306 | 0.0 | 0.0 | 0.00 | 1.04 | 1.04 | 99 | 1015.1 |
| 20260905142944 | 21 | 40 | 0.0 | 0.0 | 0.00 | 1.04 | 1.04 | 98 | 1014.6 |
| 20260905142443 | 21 | 43 | 0.0 | 0.0 | 0.00 | 1.04 | 1.04 | 98 | 1014.1 |
| 20260905141939 | 21 | 47 | 0.0 | 0.0 | 0.00 | 1.04 | 1.04 | 99 | 1013.8 |
| 20260905141433 | 21 | 2 | 0.0 | 0.0 | 0.00 | 1.04 | 1.04 | 99 | 1013.6 |
| 20260905140930 | 21 | 266 | 0.0 | 0.0 | 0.00 | 1.04 | 1.04 | 99 | 1014.1 |
| 20260905140425 | 21 | 215 | 0.0 | 0.0 | 0.00 | 1.04 | 1.04 | 99 | 1014.0 |
| 20260905135924 | 21 | 214 | 0.0 | 0.0 | 0.00 | 1.04 | 1.04 | 99 | 1013.6 |
| 20260905135419 | 21 | 350 | 0.0 | 0.0 | 0.00 | 1.04 | 1.04 | 99 | 1013.5 |
| 20260905134915 | 21 | 88 | 0.0 | 0.0 | 0.00 | 1.04 | 1.04 | 99 | 1013.9 |
| 20260905134414 | 21 | 110 | 0.0 | 0.0 | 0.18 | 1.04 | 1.04 | 99 | 1013.9 |
| 20260905133908 | 21 | 127 | 0.0 | 0.0 | 0.18 | 1.04 | 1.04 | 99 | 1014.5 |
| 20260905133403 | 21 | 189 | 0.0 | 0.0 | 0.13 | 1.02 | 1.02 | 99 | 1014.7 |
| 20260905132903 | 21 | 205 | 0.0 | 0.0 | 0.13 | 1.02 | 1.02 | 99 | 1014.7 |
| 20260905132358 | 21 | 208 | 0.0 | 0.0 | 0.18 | 0.99 | 0.99 | 99 | 1014.8 |
| 20260905131858 | 21 | 208 | 0.0 | 0.0 | 0.18 | 0.99 | 0.99 | 99 | 1015.2 |
| 20260905131354 | 21 | 48 | 0.0 | 0.0 | 0.13 | 0.97 | 0.97 | 99 | 1015.2 |
| 20260905130849 | 21 | 47 | 0.0 | 0.0 | 0.30 | 0.97 | 0.97 | 99 | 1015.1 |
| 20260905130347 | 21 | 43 | 0.0 | 0.0 | 0.30 | 0.94 | 0.94 | 99 | 1014.8 |
| 20260905125843 | 21 | 26 | 0.0 | 0.0 | 0.30 | 0.91 | 0.91 | 99 | 1015.1 |
| 20260905125337 | 21 | 8 | 0.0 | 0.0 | 0.30 | 0.89 | 0.89 | 99 | 1015.2 |
| 20260905124834 | 21 | 6 | 0.0 | 0.0 | 0.30 | 0.86 | 0.86 | 99 | 1015.4 |
| 20260905124330 | 21 | 6 | 0.0 | 0.0 | 0.18 | 0.84 | 0.84 | 99 | 1015.7 |
| 20260905123830 | 21 | 252 | 0.0 | 0.0 | 0.13 | 0.81 | 0.81 | 99 | 1015.5 |
| 20260905123327 | 21 | 222 | 0.0 | 0.0 | 0.13 | 0.81 | 0.81 | 99 | 1015.6 |
| 20260905122826 | 21 | 272 | 0.0 | 0.0 | 0.00 | 0.79 | 0.79 | 99 | 1015.9 |
| 20260905122326 | 21 | 277 | 0.0 | 0.0 | 0.18 | 0.79 | 0.79 | 99 | 1016.1 |
| 20260905121821 | 21 | 305 | 0.0 | 0.0 | 0.18 | 0.79 | 0.79 | 99 | 1016.3 |
| 20260905121318 | 21 | 16 | 0.0 | 1.6 | 0.18 | 0.76 | 0.76 | 99 | 1016.3 |
| 20260905120816 | 21 | 11 | 0.0 | 0.0 | 0.30 | 0.76 | 0.76 | 99 | 1016.3 |
| 20260905120311 | 21 | 20 | 0.0 | 0.0 | 0.61 | 0.74 | 0.74 | 99 | 1016.1 |
| 20260905115807 | 21 | 21 | 0.0 | 0.0 | 0.61 | 0.69 | 0.69 | 99 | 1015.8 |
| 20260905115306 | 21 | 20 | 0.0 | 0.0 | 0.61 | 0.64 | 0.64 | 99 | 1015.5 |
| 20260905114806 | 21 | 24 | 0.0 | 0.0 | 0.61 | 0.56 | 0.56 | 99 | 1015.3 |
| 20260905114305 | 20 | 24 | 0.0 | 0.0 | 1.07 | 0.53 | 0.53 | 99 | 1014.8 |
| 20260905113804 | 20 | 20 | 0.0 | 0.0 | 0.89 | 0.43 | 0.43 | 99 | 1015.1 |
| 20260905113300 | 20 | 20 | 0.0 | 0.0 | 0.61 | 0.33 | 0.33 | 99 | 1015.2 |
| 20260905112755 | 20 | 13 | 0.0 | 0.0 | 0.61 | 0.28 | 0.28 | 99 | 1014.7 |
| 20260905112249 | 20 | 13 | 0.0 | 0.0 | 1.37 | 0.23 | 0.23 | 99 | 1014.6 |
| 20260905111744 | 20 | 13 | 0.0 | 0.0 | 1.07 | 0.18 | 0.18 | 99 | 1014.3 |
| 20260905111239 | 20 | 12 | 0.0 | 0.0 | 0.00 | 0.00 | 0.00 | 99 | 1014.2 |
| 20260905110739 | 20 | 12 | 0.0 | 0.0 | 0.00 | 0.00 | 0.00 | 99 | 1014.0 |
| 20260905110233 | 20 | 12 | 0.0 | 0.0 | 0.00 | 0.00 | 0.00 | 99 | 1013.8 |
| 20260905105728 | 20 | 12 | 0.0 | 0.0 | 0.00 | 0.00 | 0.00 | 99 | 1013.7 |
| 20260905105227 | 20 | 12 | 0.0 | 0.0 | 0.00 | 0.00 | 0.00 | 99 | 1013.8 |
| 20260905104722 | 20 | 12 | 0.0 | 0.0 | 0.00 | 0.00 | 0.00 | 99 | 1014.0 |
| 20260905104219 | 20 | 12 | 0.0 | 0.0 | 0.00 | 0.00 | 0.00 | 99 | 1013.9 |
| 20260905103713 | 20 | 12 | 0.0 | 0.0 | 0.00 | 0.00 | 0.00 | 99 | 1014.0 |
| 20260905103209 | 20 | 12 | 0.0 | 0.0 | 0.00 | 0.00 | 0.00 | 99 | 1013.5 |
| 20260905102704 | 20 | 12 | 0.0 | 0.0 | 0.00 | 0.00 | 0.00 | 99 | 1013.8 |
| 20260905102201 | 20 | 12 | 0.0 | 0.0 | 0.00 | 0.00 | 0.00 | 99 | 1013.8 |
| 20260905101659 | 20 | 12 | 0.0 | 0.0 | 0.00 | 0.00 | 0.00 | 99 | 1013.8 |
| 20260905101158 | 20 | 12 | 0.0 | 0.0 | 0.00 | 0.00 | 0.00 | 99 | 1013.8 |
| 20260905100654 | 20 | 12 | 0.0 | 0.0 | 0.00 | 0.00 | 0.00 | 99 | 1013.8 |
| 20260905100149 | 20 | 12 | 0.0 | 0.0 | 0.00 | 0.00 | 0.00 | 99 | 1013.8 |
| 20260905095648 | 20 | 12 | 0.0 | 0.0 | 0.00 | 0.00 | 0.00 | 99 | 1013.8 |
| 20260905095143 | 20 | 12 | 0.0 | 0.0 | 0.00 | 0.00 | 0.00 | 99 | 1013.8 |
| 20260905094638 | 20 | 12 | 0.0 | 0.0 | 0.00 | 0.00 | 0.00 | 99 | 1013.5 |
| 20260905094138 | 20 | 12 | 0.0 | 0.0 | 0.00 | 0.00 | 0.00 | 99 | 1013.8 |
| 20260905093632 | 20 | 12 | 0.0 | 0.0 | 0.00 | 0.00 | 0.00 | 99 | 1013.8 |
| 20260905093128 | 20 | 12 | 0.0 | 0.0 | 0.00 | 0.00 | 0.00 | 99 | 1013.9 |
| 20260905092623 | 20 | 12 | 0.0 | 0.0 | 0.00 | 0.00 | 0.00 | 99 | 1013.9 |
| 20260905092119 | 20 | 12 | 0.0 | 0.0 | 0.00 | 0.00 | 0.00 | 99 | 1013.9 |
| 20260905091618 | 20 | 12 | 0.0 | 0.0 | 0.00 | 0.00 | 0.00 | 99 | 1013.8 |
| 20260905091113 | 20 | 13 | 0.0 | 0.0 | 0.00 | 0.00 | 0.00 | 99 | 1013.8 |
| 20260905090613 | 20 | 12 | 0.0 | 0.0 | 0.00 | 0.00 | 0.00 | 99 | 1014.1 |
| 20260905090109 | 20 | 12 | 0.0 | 0.0 | 0.00 | 0.00 | 0.00 | 99 | 1013.9 |
| 20260905085607 | 20 | 12 | 0.0 | 0.0 | 0.00 | 0.00 | 0.00 | 99 | 1013.7 |
| 20260905085103 | 20 | 12 | 0.0 | 0.0 | 0.00 | 0.00 | 0.00 | 99 | 1013.7 |
| 20260905084601 | 20 | 12 | 0.0 | 0.0 | 0.00 | 0.00 | 0.00 | 99 | 1013.7 |
| 20260905084056 | 20 | 12 | 0.0 | 0.0 | 0.00 | 0.00 | 0.00 | 99 | 1013.6 |
| 20260905083551 | 20 | 12 | 0.0 | 0.0 | 0.00 | 0.00 | 0.00 | 99 | 1013.7 |
| 20260905083048 | 20 | 12 | 0.0 | 0.0 | 0.00 | 0.00 | 0.00 | 99 | 1013.7 |
| 20260905082543 | 20 | 12 | 0.0 | 0.0 | 0.00 | 0.00 | 0.00 | 99 | 1013.8 |
| 20260905082039 | 20 | 12 | 0.0 | 0.0 | 0.00 | 0.00 | 0.00 | 99 | 1013.6 |
| 20260905081537 | 20 | 12 | 0.0 | 0.0 | 0.00 | 0.00 | 0.00 | 99 | 1013.9 |
| 20260905081032 | 20 | 12 | 0.0 | 0.0 | 0.00 | 0.00 | 0.00 | 99 | 1013.8 |
| 20260905080526 | 20 | 12 | 0.0 | 0.0 | 0.00 | 0.00 | 0.00 | 99 | 1014.0 |
| 20260905080022 | 20 | 12 | 0.0 | 0.0 | 0.00 | 0.00 | 0.00 | 99 | 1013.9 |
| 20260905075515 | 20 | 12 | 0.0 | 0.0 | 0.00 | 0.00 | 0.00 | 99 | 1013.9 |
| 20260905075014 | 20 | 12 | 0.0 | 0.0 | 0.00 | 0.00 | 0.00 | 99 | 1014.0 |
| 20260905074504 | 20 | 12 | 0.0 | 0.0 | 0.00 | 0.00 | 0.00 | 99 | 1014.0 |
| 20260905073959 | 20 | 12 | 0.0 | 0.0 | 0.00 | 0.00 | 0.00 | 99 | 1014.2 |
| 20260905073454 | 20 | 12 | 0.0 | 0.0 | 0.00 | 0.00 | 0.00 | 99 | 1014.2 |
| 20260905072950 | 20 | 12 | 0.0 | 0.0 | 0.00 | 0.00 | 0.00 | 99 | 1014.2 |
| 20260905072444 | 20 | 12 | 0.0 | 0.0 | 0.00 | 0.00 | 0.00 | 99 | 1014.2 |
| 20260905071940 | 20 | 12 | 0.0 | 0.0 | 0.00 | 0.00 | 0.00 | 99 | 1014.2 |
| 20260905071437 | 20 | 12 | 0.0 | 0.0 | 0.00 | 0.00 | 0.00 | 99 | 1014.1 |
| 20260905070936 | 20 | 12 | 0.0 | 0.0 | 0.00 | 0.00 | 0.00 | 99 | 1014.3 |
| 20260905070433 | 20 | 12 | 0.0 | 0.0 | 0.00 | 0.00 | 0.00 | 99 | 1014.2 |
| 20260905065932 | 20 | 12 | 0.0 | 0.0 | 0.00 | 0.00 | 0.00 | 99 | 1014.5 |
| 20260905065430 | 20 | 12 | 0.0 | 0.0 | 0.00 | 0.00 | 0.00 | 99 | 1014.4 |
| 20260905064926 | 20 | 13 | 0.0 | 0.0 | 0.00 | 0.00 | 0.00 | 99 | 1014.6 |
| 20260905064421 | 20 | 13 | 0.0 | 0.0 | 0.00 | 0.00 | 0.00 | 99 | 1014.6 |
| 20260905063920 | 20 | 13 | 0.0 | 0.0 | 0.00 | 0.00 | 0.00 | 99 | 1014.7 |
| 20260905063415 | 20 | 13 | 0.0 | 0.0 | 0.00 | 0.00 | 0.00 | 99 | 1014.9 |
| 20260905062912 | 20 | 13 | 0.0 | 0.0 | 0.00 | 0.00 | 0.00 | 99 | 1014.9 |
| 20260905062412 | 20 | 13 | 0.0 | 0.0 | 0.00 | 0.00 | 0.00 | 99 | 1015.2 |
| 20260905061907 | 20 | 13 | 0.0 | 0.0 | 0.00 | 0.00 | 0.00 | 99 | 1015.2 |
| 20260905061401 | 20 | 13 | 0.0 | 0.0 | 0.00 | 0.00 | 0.00 | 99 | 1015.4 |
| 20260905060901 | 20 | 13 | 0.0 | 0.0 | 0.00 | 0.00 | 0.00 | 99 | 1015.5 |
| 20260905060357 | 20 | 13 | 0.0 | 0.0 | 0.00 | 0.00 | 0.00 | 99 | 1015.5 |
| 20260905055856 | 20 | 13 | 0.0 | 0.0 | 0.00 | 0.00 | 0.00 | 99 | 1015.6 |
| 20260905055352 | 20 | 13 | 0.0 | 0.0 | 0.00 | 0.00 | 0.00 | 99 | 1015.7 |
| 20260905054851 | 20 | 13 | 0.0 | 0.0 | 0.00 | 0.00 | 0.00 | 99 | 1015.6 |
| 20260905054347 | 20 | 13 | 0.0 | 0.0 | 0.00 | 0.00 | 0.00 | 99 | 1015.9 |
| 20260905053847 | 21 | 13 | 0.0 | 0.0 | 0.00 | 0.00 | 0.00 | 99 | 1015.9 |
| 20260905053341 | 21 | 13 | 0.0 | 0.0 | 0.00 | 0.00 | 0.00 | 99 | 1015.9 |
| 20260905052837 | 21 | 13 | 0.0 | 0.0 | 0.00 | 0.00 | 0.00 | 99 | 1016.1 |
| 20260905052336 | 21 | 13 | 0.0 | 0.0 | 0.00 | 0.00 | 0.00 | 99 | 1016.1 |
| 20260905051836 | 20 | 13 | 0.0 | 0.0 | 0.00 | 0.00 | 0.00 | 99 | 1016.2 |
| 20260905051332 | 20 | 13 | 0.0 | 0.0 | 0.00 | 0.00 | 0.00 | 99 | 1016.2 |
| 20260905050830 | 20 | 13 | 0.0 | 0.0 | 0.00 | 0.00 | 0.00 | 99 | 1016.3 |
| 20260905050326 | 20 | 13 | 0.0 | 0.0 | 0.00 | 0.00 | 0.00 | 99 | 1016.2 |
| 20260905045825 | 20 | 13 | 0.0 | 0.0 | 0.00 | 0.00 | 0.00 | 99 | 1016.2 |
| 20260905045320 | 20 | 13 | 0.0 | 0.0 | 0.00 | 0.00 | 0.00 | 99 | 1016.1 |
| 20260905044816 | 20 | 13 | 0.0 | 0.0 | 0.00 | 0.00 | 0.00 | 99 | 1016.1 |
| 20260905044311 | 21 | 12 | 0.0 | 0.0 | 0.00 | 0.00 | 0.00 | 99 | 1016.0 |
| 20260905043809 | 20 | 12 | 0.0 | 0.0 | 0.00 | 0.00 | 0.00 | 99 | 1016.2 |
| 20260905043304 | 20 | 12 | 0.0 | 0.0 | 0.00 | 0.00 | 0.00 | 99 | 1016.0 |
| 20260905042805 | 20 | 13 | 0.0 | 0.0 | 0.00 | 0.00 | 0.00 | 99 | 1016.1 |
| 20260905042259 | 20 | 13 | 0.0 | 0.0 | 0.00 | 0.00 | 0.00 | 99 | 1016.3 |
| 20260905041754 | 20 | 13 | 0.0 | 0.0 | 0.00 | 0.00 | 0.00 | 99 | 1016.2 |
| 20260905041250 | 20 | 13 | 0.0 | 0.0 | 0.00 | 0.00 | 0.00 | 99 | 1016.2 |
| 20260905040750 | 20 | 13 | 0.0 | 0.0 | 0.00 | 0.00 | 0.00 | 99 | 1016.3 |
| 20260905040248 | 20 | 13 | 0.0 | 0.0 | 0.00 | 1.91 | 1.91 | 99 | 1016.4 |
| 20260905035743 | 20 | 13 | 0.0 | 0.0 | 0.00 | 1.91 | 1.91 | 99 | 1016.3 |
| 20260905035240 | 20 | 13 | 0.0 | 0.0 | 0.00 | 1.91 | 1.91 | 99 | 1016.3 |
| 20260905034737 | 21 | 13 | 0.0 | 0.0 | 0.00 | 1.91 | 1.91 | 99 | 1016.3 |
| 20260905034236 | 21 | 13 | 0.0 | 0.0 | 0.00 | 1.91 | 1.91 | 99 | 1016.5 |
| 20260905033735 | 21 | 13 | 0.0 | 0.0 | 0.00 | 1.91 | 1.91 | 99 | 1016.3 |
| 20260905033231 | 21 | 13 | 0.0 | 0.0 | 0.00 | 1.91 | 1.91 | 99 | 1016.2 |
| 20260905032730 | 21 | 13 | 0.0 | 0.0 | 0.00 | 1.91 | 1.91 | 99 | 1016.3 |
| 20260905032225 | 21 | 13 | 0.0 | 0.0 | 0.00 | 1.91 | 1.91 | 99 | 1016.3 |
| 20260905031721 | 21 | 13 | 0.0 | 0.0 | 0.00 | 1.91 | 1.91 | 99 | 1016.0 |
| 20260905031216 | 21 | 12 | 0.0 | 0.0 | 0.00 | 1.91 | 1.91 | 99 | 1016.2 |
| 20260905030711 | 21 | 12 | 0.0 | 0.0 | 0.00 | 1.91 | 1.91 | 99 | 1016.1 |
| 20260905030201 | 21 | 12 | 0.0 | 0.0 | 0.00 | 1.91 | 1.91 | 99 | 1016.3 |
| 20260905025656 | 21 | 12 | 0.0 | 0.0 | 0.00 | 1.91 | 1.91 | 99 | 1016.4 |
| 20260905025151 | 21 | 12 | 0.0 | 0.0 | 0.00 | 1.91 | 1.91 | 99 | 1016.4 |
| 20260905024647 | 21 | 12 | 0.0 | 0.0 | 0.00 | 1.91 | 1.91 | 99 | 1016.2 |
| 20260905024143 | 21 | 12 | 0.0 | 0.0 | 0.00 | 1.91 | 1.91 | 99 | 1016.5 |
| 20260905023638 | 21 | 12 | 0.0 | 0.0 | 0.00 | 1.91 | 1.91 | 99 | 1016.2 |
| 20260905023137 | 21 | 12 | 0.0 | 0.0 | 0.00 | 1.91 | 1.91 | 99 | 1016.3 |
| 20260905022636 | 21 | 12 | 0.0 | 0.0 | 0.00 | 1.91 | 1.91 | 99 | 1016.3 |
| 20260905022131 | 21 | 12 | 0.0 | 0.0 | 0.00 | 1.91 | 1.91 | 99 | 1016.4 |
| 20260905021625 | 21 | 12 | 0.0 | 0.0 | 0.00 | 1.91 | 1.91 | 99 | 1016.2 |
| 20260905021122 | 21 | 12 | 0.0 | 0.0 | 0.00 | 1.91 | 1.91 | 99 | 1016.1 |
| 20260905020621 | 21 | 12 | 0.0 | 0.0 | 0.00 | 1.91 | 1.91 | 99 | 1016.2 |
| 20260905020116 | 21 | 12 | 0.0 | 0.0 | 0.00 | 1.91 | 1.91 | 99 | 1015.8 |
| 20260905015614 | 21 | 12 | 0.0 | 0.0 | 0.00 | 1.91 | 1.91 | 99 | 1015.9 |
| 20260905015109 | 21 | 12 | 0.0 | 0.0 | 0.00 | 1.91 | 1.91 | 99 | 1015.8 |
| 20260905014603 | 21 | 12 | 0.0 | 0.0 | 0.00 | 1.91 | 1.91 | 99 | 1015.9 |
| 20260905014059 | 21 | 12 | 0.0 | 0.0 | 0.00 | 1.91 | 1.91 | 99 | 1015.6 |
| 20260905013555 | 21 | 12 | 0.0 | 0.0 | 0.00 | 1.91 | 1.91 | 99 | 1015.7 |
| 20260905013051 | 21 | 12 | 0.0 | 0.0 | 0.00 | 1.91 | 1.91 | 99 | 1015.8 |
| 20260905012550 | 21 | 12 | 0.0 | 0.0 | 0.00 | 1.91 | 1.91 | 99 | 1015.7 |
| 20260905012047 | 21 | 12 | 0.0 | 0.0 | 0.00 | 1.91 | 1.91 | 99 | 1015.7 |
| 20260905011543 | 21 | 12 | 0.0 | 0.0 | 0.00 | 1.91 | 1.91 | 99 | 1015.7 |
| 20260905011039 | 21 | 12 | 0.0 | 0.0 | 0.00 | 1.91 | 1.91 | 99 | 1015.6 |
| 20260905010539 | 21 | 12 | 0.0 | 0.0 | 0.00 | 1.91 | 1.91 | 99 | 1015.5 |
| 20260905010036 | 21 | 12 | 0.0 | 0.0 | 0.00 | 1.91 | 1.91 | 99 | 1015.5 |
| 20260905005536 | 21 | 12 | 0.0 | 0.0 | 0.00 | 1.91 | 1.91 | 99 | 1015.2 |
| 20260905005031 | 21 | 12 | 0.0 | 0.0 | 0.00 | 1.91 | 1.91 | 99 | 1015.2 |
| 20260905004526 | 21 | 12 | 0.0 | 0.0 | 0.00 | 1.91 | 1.91 | 99 | 1015.2 |
| 20260905004021 | 21 | 12 | 0.0 | 0.0 | 0.00 | 1.91 | 1.91 | 99 | 1015.1 |
| 20260905003517 | 22 | 12 | 0.0 | 0.0 | 0.00 | 1.91 | 1.91 | 99 | 1015.1 |
| 20260905003013 | 22 | 12 | 0.0 | 0.0 | 0.00 | 1.91 | 1.91 | 99 | 1014.9 |
| 20260905002508 | 22 | 12 | 0.0 | 0.0 | 0.00 | 1.91 | 1.91 | 99 | 1014.8 |
| 20260905002008 | 22 | 12 | 0.0 | 0.0 | 0.00 | 1.91 | 1.91 | 99 | 1015.1 |
| 20260905001502 | 22 | 12 | 0.0 | 0.0 | 0.00 | 1.91 | 1.91 | 99 | 1015.3 |
| 20260905000956 | 22 | 12 | 0.0 | 0.0 | 0.00 | 1.91 | 1.91 | 98 | 1015.3 |
| 20260905000454 | 22 | 12 | 0.0 | 0.0 | 0.00 | 1.91 | 1.91 | 98 | 1014.8 |
| 20260904235948 | 22 | 12 | 0.0 | 0.0 | 0.00 | 1.91 | 1.91 | 98 | 1014.8 |
| 20260904235444 | 22 | 13 | 0.0 | 0.0 | 0.00 | 1.91 | 1.91 | 98 | 1015.2 |
| 20260904234943 | 22 | 13 | 0.0 | 0.0 | 0.00 | 1.91 | 1.91 | 98 | 1014.9 |
| 20260904234443 | 22 | 13 | 0.0 | 0.0 | 0.00 | 1.91 | 1.91 | 98 | 1014.8 |
| 20260904233939 | 22 | 13 | 0.0 | 0.0 | 0.00 | 1.91 | 1.91 | 97 | 1014.9 |
| 20260904233434 | 23 | 12 | 0.0 | 0.0 | 0.00 | 1.91 | 1.91 | 96 | 1014.9 |
| 20260904232931 | 23 | 12 | 0.0 | 0.0 | 0.00 | 1.91 | 1.91 | 95 | 1015.1 |
| 20260904232427 | 23 | 12 | 0.0 | 0.0 | 0.00 | 1.91 | 1.91 | 94 | 1015.1 |
| 20260904231923 | 23 | 12 | 0.0 | 0.0 | 0.00 | 1.91 | 1.91 | 94 | 1014.8 |
| 20260904231424 | 23 | 192 | 0.0 | 0.0 | 0.00 | 1.91 | 1.91 | 94 | 1014.8 |
| 20260904230919 | 23 | 192 | 0.0 | 0.0 | 0.00 | 1.91 | 1.91 | 94 | 1015.1 |
| 20260904230417 | 23 | 197 | 0.0 | 0.0 | 0.00 | 1.91 | 1.91 | 94 | 1014.8 |
| 20260904225913 | 23 | 222 | 0.0 | 0.0 | 0.00 | 1.91 | 1.91 | 93 | 1015.3 |
| 20260904225411 | 23 | 222 | 0.0 | 0.0 | 0.00 | 1.91 | 1.91 | 94 | 1015.4 |
| 20260904224910 | 23 | 222 | 0.0 | 0.0 | 0.00 | 1.91 | 1.91 | 93 | 1015.2 |
| 20260904224406 | 23 | 222 | 0.0 | 0.0 | 0.00 | 1.91 | 1.91 | 91 | 1015.4 |
| 20260904223901 | 23 | 222 | 0.0 | 0.0 | 0.00 | 1.91 | 1.91 | 91 | 1015.4 |
| 20260904223400 | 24 | 222 | 0.0 | 0.0 | 0.00 | 1.91 | 1.91 | 91 | 1015.6 |
| 20260904222856 | 24 | 222 | 0.0 | 0.0 | 0.00 | 1.91 | 1.91 | 90 | 1015.6 |
| 20260904222351 | 24 | 109 | 0.0 | 0.0 | 0.00 | 1.91 | 1.91 | 89 | 1015.9 |
| 20260904221850 | 24 | 150 | 0.0 | 0.0 | 0.00 | 1.91 | 1.91 | 89 | 1015.9 |
| 20260904221345 | 25 | 112 | 0.0 | 0.0 | 0.00 | 1.91 | 1.91 | 88 | 1016.1 |
| 20260904220841 | 25 | 144 | 0.0 | 0.0 | 0.00 | 1.91 | 1.91 | 89 | 1016.0 |
| 20260904220339 | 24 | 305 | 0.0 | 0.0 | 0.00 | 1.91 | 1.91 | 90 | 1016.3 |
| 20260904215835 | 24 | 207 | 0.0 | 0.0 | 0.00 | 1.91 | 1.91 | 89 | 1016.5 |
| 20260904215330 | 25 | 268 | 0.0 | 0.0 | 0.00 | 1.91 | 1.91 | 89 | 1016.3 |
| 20260904214826 | 24 | 244 | 0.0 | 0.0 | 0.00 | 1.91 | 1.91 | 91 | 1016.4 |
| 20260904214322 | 24 | 121 | 0.0 | 0.0 | 0.00 | 1.91 | 1.91 | 90 | 1016.5 |
| 20260904213820 | 23 | 144 | 0.0 | 0.0 | 0.00 | 1.91 | 1.91 | 91 | 1016.5 |
| 20260904213315 | 23 | 224 | 0.0 | 0.0 | 0.00 | 1.91 | 1.91 | 92 | 1016.5 |
| 20260904212812 | 23 | 342 | 0.0 | 0.0 | 0.00 | 1.91 | 1.91 | 93 | 1016.4 |
| 20260904212311 | 23 | 139 | 0.0 | 1.6 | 0.00 | 1.91 | 1.91 | 92 | 1016.4 |
| 20260904211807 | 22 | 168 | 0.0 | 0.0 | 0.00 | 1.91 | 1.91 | 93 | 1016.5 |
| 20260904211301 | 23 | 226 | 0.0 | 0.0 | 0.00 | 1.91 | 1.91 | 94 | 1016.5 |
| 20260904210756 | 23 | 85 | 0.0 | 0.0 | 0.00 | 1.91 | 1.91 | 95 | 1016.7 |
| 20260904210250 | 23 | 317 | 0.0 | 0.0 | 0.00 | 1.91 | 1.91 | 96 | 1016.7 |
| 20260904205746 | 22 | 233 | 0.0 | 0.0 | 0.00 | 1.91 | 1.91 | 96 | 1016.4 |
| 20260904205242 | 22 | 155 | 0.0 | 0.0 | 0.00 | 1.91 | 1.91 | 96 | 1016.4 |